When you browse on this site, cookies collect data to enhance your experience and personalize the content and advertising you see.
Visit our Privacy Policy to learn more. By continuing to use the site, you agree to this use of cookies and data.
EN

Hourly Weather Stavky

Today, 10 August, Monday

Time Temperature Precipitation Wind Pressure Humidity
00:00 +23°C° 0 mm 4 mps 752 mmHg 55%
01:00 +22°C° 0 mm 4 mps 752 mmHg 57%
02:00 +21°C° 0 mm 3 mps 752 mmHg 59%
03:00 +21°C° 0 mm 3 mps 752 mmHg 60%
04:00 +21°C° 0 mm 3 mps 752 mmHg 60%
05:00 +21°C° 0 mm 3 mps 753 mmHg 60%
06:00 +22°C° 0 mm 3 mps 753 mmHg 57%
07:00 +24°C° 0 mm 3 mps 753 mmHg 53%
08:00 +26°C° 0 mm 3 mps 753 mmHg 49%
09:00 +27°C° 0 mm 3 mps 753 mmHg 46%
10:00 +28°C° 0 mm 3 mps 753 mmHg 42%
11:00 +29°C° 0 mm 3 mps 753 mmHg 39%
12:00 +29°C° 0 mm 2 mps 753 mmHg 37%
13:00 +30°C° 0 mm 2 mps 753 mmHg 36%
14:00 +30°C° 0 mm 2 mps 753 mmHg 34%
15:00 +30°C° 0 mm 2 mps 753 mmHg 35%
16:00 +30°C° 0 mm 2 mps 753 mmHg 36%
17:00 +29°C° 0 mm 2 mps 752 mmHg 37%
18:00 +28°C° 0 mm 2 mps 752 mmHg 41%
19:00 +27°C° 0 mm 2 mps 752 mmHg 45%
20:00 +25°C° 0 mm 3 mps 752 mmHg 49%
21:00 +25°C° 0 mm 2 mps 753 mmHg 51%
22:00 +24°C° 0 mm 2 mps 753 mmHg 53%
23:00 +24°C° 0 mm 1 mps 753 mmHg 55%

Tomorrow, 11 August, Tuesday

Time Temperature Precipitation Wind Pressure Humidity
00:00 +23°C° 0 mm 1 mps 753 mmHg 56%
01:00 +23°C° 0 mm 1 mps 753 mmHg 58%
02:00 +23°C° 0 mm 2 mps 753 mmHg 59%
03:00 +21°C° 0 mm 2 mps 753 mmHg 61%
04:00 +21°C° 0 mm 2 mps 753 mmHg 62%
05:00 +20°C° 0 mm 2 mps 753 mmHg 64%
06:00 +23°C° 0 mm 2 mps 753 mmHg 59%
07:00 +25°C° 0 mm 2 mps 753 mmHg 54%
08:00 +27°C° 0 mm 2 mps 753 mmHg 49%
09:00 +28°C° 0 mm 2 mps 753 mmHg 45%
10:00 +29°C° 0 mm 3 mps 753 mmHg 41%
11:00 +31°C° 0 mm 3 mps 753 mmHg 36%
12:00 +31°C° 0 mm 3 mps 753 mmHg 36%
13:00 +31°C° 0 mm 2 mps 753 mmHg 36%
14:00 +31°C° 0 mm 2 mps 752 mmHg 35%
15:00 +31°C° 0 mm 2 mps 752 mmHg 36%
16:00 +31°C° 0 mm 2 mps 752 mmHg 37%
17:00 +31°C° 0 mm 2 mps 752 mmHg 38%
18:00 +29°C° 0 mm 2 mps 752 mmHg 41%
19:00 +28°C° 0 mm 2 mps 752 mmHg 44%
20:00 +27°C° 0 mm 2 mps 752 mmHg 48%
21:00 +26°C° 0 mm 2 mps 752 mmHg 50%
22:00 +26°C° 0 mm 2 mps 753 mmHg 53%
23:00 +25°C° 0 mm 1 mps 753 mmHg 55%

Day after tomorrow, 12 August, Wednesday

Time Temperature Precipitation Wind Pressure Humidity
00:00 +25°C° 0 mm 1 mps 752 mmHg 56%
01:00 +24°C° 0 mm 2 mps 752 mmHg 57%
02:00 +24°C° 0 mm 2 mps 752 mmHg 58%
03:00 +23°C° 0 mm 2 mps 752 mmHg 59%
04:00 +23°C° 0 mm 2 mps 752 mmHg 60%
05:00 +23°C° 0 mm 2 mps 752 mmHg 60%
06:00 +24°C° 0 mm 2 mps 752 mmHg 56%
07:00 +26°C° 0 mm 3 mps 752 mmHg 52%
08:00 +28°C° 0 mm 3 mps 752 mmHg 48%
09:00 +29°C° 0 mm 3 mps 752 mmHg 44%
10:00 +30°C° 0 mm 3 mps 752 mmHg 40%
11:00 +31°C° 0 mm 3 mps 752 mmHg 36%
12:00 +31°C° 0 mm 3 mps 752 mmHg 37%
13:00 +32°C° 0 mm 4 mps 752 mmHg 38%
14:00 +32°C° 0 mm 4 mps 752 mmHg 39%
15:00 +32°C° 0 mm 4 mps 752 mmHg 40%
16:00 +32°C° 0 mm 5 mps 752 mmHg 40%
17:00 +30°C° 0 mm 5 mps 752 mmHg 41%
18:00 +29°C° 0.1 mm 6 mps 753 mmHg 45%
19:00 +27°C° 0.1 mm 6 mps 753 mmHg 49%
20:00 +24°C° 0.1 mm 6 mps 753 mmHg 54%
21:00 +23°C° 0 mm 6 mps 754 mmHg 53%
22:00 +22°C° 0 mm 6 mps 754 mmHg 53%
23:00 +20°C° 0 mm 6 mps 754 mmHg 53%

13 August, Thursday

Time Temperature Precipitation Wind Pressure Humidity
00:00 +19°C° 0 mm 6 mps 754 mmHg 56%
01:00 +17°C° 0 mm 5 mps 755 mmHg 60%
02:00 +16°C° 0 mm 5 mps 755 mmHg 63%
03:00 +16°C° 0 mm 5 mps 755 mmHg 66%
04:00 +15°C° 0 mm 4 mps 755 mmHg 68%
05:00 +14°C° 0 mm 4 mps 755 mmHg 71%
06:00 +16°C° 0 mm 5 mps 755 mmHg 65%
07:00 +17°C° 0 mm 5 mps 755 mmHg 58%
08:00 +19°C° 0 mm 5 mps 756 mmHg 52%
09:00 +21°C° 0 mm 5 mps 756 mmHg 47%
10:00 +22°C° 0 mm 5 mps 756 mmHg 42%
11:00 +25°C° 0 mm 5 mps 756 mmHg 38%
12:00 +26°C° 0 mm 5 mps 755 mmHg 35%
13:00 +27°C° 0 mm 5 mps 755 mmHg 32%
14:00 +27°C° 0 mm 5 mps 755 mmHg 30%
15:00 +27°C° 0 mm 5 mps 754 mmHg 30%
16:00 +27°C° 0 mm 5 mps 754 mmHg 30%
17:00 +27°C° 0 mm 5 mps 754 mmHg 30%
18:00 +25°C° 0 mm 5 mps 754 mmHg 36%
19:00 +23°C° 0 mm 5 mps 754 mmHg 41%
20:00 +21°C° 0 mm 5 mps 755 mmHg 46%
21:00 +20°C° 0 mm 4 mps 755 mmHg 49%
22:00 +19°C° 0 mm 4 mps 755 mmHg 52%
23:00 +18°C° 0 mm 3 mps 755 mmHg 56%

14 August, Friday

Time Temperature Precipitation Wind Pressure Humidity
00:00 +18°C° 0 mm 3 mps 755 mmHg 58%
01:00 +17°C° 0 mm 3 mps 755 mmHg 61%
02:00 +17°C° 0 mm 3 mps 755 mmHg 63%
03:00 +16°C° 0 mm 3 mps 755 mmHg 66%
04:00 +14°C° 0 mm 3 mps 755 mmHg 70%
05:00 +14°C° 0 mm 3 mps 755 mmHg 73%
06:00 +16°C° 0 mm 3 mps 756 mmHg 67%
07:00 +18°C° 0 mm 3 mps 756 mmHg 61%
08:00 +20°C° 0 mm 4 mps 756 mmHg 55%
09:00 +21°C° 0 mm 4 mps 756 mmHg 49%
10:00 +22°C° 0 mm 4 mps 756 mmHg 43%
11:00 +23°C° 0 mm 4 mps 756 mmHg 38%
12:00 +25°C° 0 mm 4 mps 756 mmHg 35%
13:00 +26°C° 0 mm 4 mps 755 mmHg 32%
14:00 +27°C° 0 mm 4 mps 755 mmHg 29%
15:00 +26°C° 0 mm 4 mps 755 mmHg 30%
16:00 +26°C° 0 mm 4 mps 755 mmHg 30%
17:00 +26°C° 0 mm 4 mps 755 mmHg 30%
18:00 +23°C° 0 mm 4 mps 755 mmHg 36%
19:00 +22°C° 0 mm 4 mps 755 mmHg 41%
20:00 +20°C° 0 mm 4 mps 755 mmHg 47%
21:00 +19°C° 0 mm 4 mps 756 mmHg 49%
22:00 +18°C° 0 mm 3 mps 756 mmHg 51%
23:00 +17°C° 0 mm 3 mps 756 mmHg 53%

15 August, Saturday

Time Temperature Precipitation Wind Pressure Humidity
00:00 +17°C° 0 mm 3 mps 756 mmHg 54%
01:00 +16°C° 0 mm 3 mps 756 mmHg 54%
02:00 +16°C° 0 mm 2 mps 756 mmHg 55%
03:00 +15°C° 0 mm 2 mps 756 mmHg 56%
04:00 +15°C° 0 mm 2 mps 756 mmHg 57%
05:00 +14°C° 0 mm 2 mps 756 mmHg 57%
06:00 +16°C° 0 mm 2 mps 756 mmHg 52%
07:00 +18°C° 0 mm 2 mps 756 mmHg 47%
08:00 +20°C° 0 mm 2 mps 756 mmHg 41%
09:00 +21°C° 0 mm 2 mps 756 mmHg 38%
10:00 +24°C° 0 mm 2 mps 755 mmHg 35%
11:00 +25°C° 0 mm 2 mps 755 mmHg 32%
12:00 +26°C° 0 mm 2 mps 755 mmHg 31%
13:00 +27°C° 0 mm 2 mps 755 mmHg 29%
14:00 +28°C° 0 mm 2 mps 754 mmHg 27%
15:00 +28°C° 0 mm 2 mps 754 mmHg 28%
16:00 +27°C° 0 mm 2 mps 754 mmHg 29%
17:00 +27°C° 0 mm 2 mps 753 mmHg 29%
18:00 +25°C° 0 mm 2 mps 753 mmHg 34%
19:00 +24°C° 0 mm 2 mps 753 mmHg 39%
20:00 +21°C° 0 mm 2 mps 753 mmHg 43%
21:00 +20°C° 0 mm 2 mps 753 mmHg 45%
22:00 +21°C° 0 mm 1 mps 753 mmHg 46%
23:00 +20°C° 0 mm 1 mps 753 mmHg 48%
Show more